Portada
METAR-TAF:

METAR-TAF

Aeroports :

NWS Office

Pohnpei, Micronèsia

latitud: 06-58N, longitud: 158-13E, altitud: 39 m

Observació

L'informe es va fer fa 42 minuts, a les 10:51 UTC
Vent calma
Temperatura 24°C
Humitat 100%
Pressió 1012 hPa
Visibilitat: 24.1 km
Escasses núvols a una alçada de 1800 ft
Cel ennuvolat a una alçada de 13000 ft
Cel cobert a una alçada de 30000 ft

METAR: PTTP 231051Z 00000KT 15SM FEW018 BKN130 OVC300 24/24 A2988 RMK SLP117 T02420236

Hora: 22:33 (11:33 UTC)


TAF: manca

Observacions i pronòstics meteorològics de més de 4000 aeroports (METAR i TAF).

Les estacions disponibles són els punts grocs i vermells al mapa.

Posi el ratolí al punt desitjat per veure el nom de l'estació.

Feu clic per veure les observacions i els pronòstics meteorològics.

Per canviar el mapa: feu clic els botons verds amb una creu de color negre per apropar; al botó verd amb un guió per allunyar la imatge; o en les fletxes verdes per a mapes adjacents.


METAR-TAF: